Location: Miles
(41.4492°N, 81.6087°W)
Time: 23:33:51
(UTC+00:00)

Courier 1B Rocket - Pass Details

Date: 19 September 2024
Orbit: 920 x 1201 km, 28.2° (Epoch: 09 October)

Event Time Altitude Azimuth Distance (km) Brightness Sun altitude
Rises 21:04:14 0° 244° (WSW) 3,604 9.3 25.5°
Reaches altitude 10° 21:07:14 10° 232° (SW) 2,692 8.9 25.0°
Maximum altitude 21:12:28 26° 178° (S) 1,853 6.9 24.0°
Drops below altitude 10° 21:17:59 10° 124° (SE) 2,845 7.2 23.1°
Sets 21:21:15 0° 113° (ESE) 3,852 7.7 22.5°
